TIME,DELAY(SENSOR),PRES,OXYGEN,RAWTEMP,T(OPTODE),TCPHASE,FLUOR,BETA(BETA700),BETA(BETA412),BETA(BETA440),CDOM,C(CSC),ED(ED411.90),ED(ED443.80),ED(ED489.40),ED(ED554.70),LU(LU412.20),LU(LU443.80),LU(LU489.40),LU(LU555.00),COMP,TILTX,TILTY,CHECK
1343342770,5804,870.5399780273438000,168.1320953369140600,454.6906127929687500,9.2919473648071290,39.8261909484863300,51,109,102,84,76,15383,2147444086,2147789942,2147577746,2147826157,2147309092,2147454080,2147755821,2148269074,555,6,14,56542
1343346367,5803,8.8999996185302730,207.5173950195312500,522.4824829101562000,7.1746220588684080,38.4062004089355500,51,106,102,83,75,15386,2147433069,2147797613,2147585234,2147833865,2147304493,2147448502,2147763428,2148276315,699,6,14,35750
1343349967,5804,10.6000003814697270,220.3480987548828000,533.9871215820312000,6.8122019767761230,37.8733787536621100,51,106,102,82,76,15384,2147429266,2147799725,2147586038,2147834322,2147305563,2147441060,2147770148,2148277970,120,6,14,49982
1343353567,5804,10.1999998092651370,223.5991058349609400,536.0117187500000000,6.7483201026916500,37.7297897338867200,51,108,101,82,76,15346,2147433654,2147795885,2147586422,2147835364,2147305984,2147443620,2147766226,2148280073,527,6,14,30628
1343357167,5805,11.0000000000000000,223.4756011962890600,535.3640747070312000,6.7687568664550780,37.7249984741210940,51,104,105,83,76,15383,2147430326,2147800292,2147584448,2147834422,2147306276,2147445577,2147766290,2148278345,2283,6,14,52345
1343360767,5806,1194.0000000000000000,223.8182067871093800,536.6085205078125000,6.7294812202453610,37.7279090881347660,51,105,101,82,76,15382,2147432530,2147797558,2147587830,2147835803,2147306477,2147447963,2147767917,2148278674,274,6,14,47746
1343364367,5806,1092.0000000000000000,223.8833007812500000,537.4957275390625000,6.7014732360839840,37.7401695251464840,51,104,102,82,76,15378,2147433124,2147797348,2147585664,2147834898,2147303661,2147446262,2147766537,2148276800,207,6,14,35008
1343367967,5808,12.0000000000000000,223.4868011474609400,538.5778808593750000,6.6673011779785160,37.7817001342773440,51,104,102,82,76,15377,2147430400,2147795099,2147586706,2147837065,2147305472,2147442496,2147768822,2148278262,51,6,14,60879
1343371567,5805,13.5000000000000000,223.7234954833984400,536.4036865234375000,6.7359471321105960,37.7293891906738300,51,103,102,81,76,15380,2147428992,2147798354,2147588342,2147838811,2147305618,2147447414,2147765942,2148275885,580,6,14,50301
1343375167,5805,13.0000000000000000,223.6929931640625000,536.9074096679688000,6.7200469970703125,37.7406311035156250,51,104,102,81,76,15375,2147432054,2147799798,2147590299,2147835483,2147308882,2147442340,2147766034,2148277421,624,6,14,56988
1343378767,5805,1311.0000000000000000,224.3657989501953000,536.8090820312500000,6.7231497764587400,37.7018394470214840,51,105,103,82,75,15379,2147433152,2147799030,2147589156,2147834057,2147306267,2147442377,2147771062,2148276306,2967,6,15,30362
1343382367,5805,12.3999996185302730,223.2142028808593800,535.9307861328125000,6.7508702278137210,37.7492599487304700,50,111,102,81,75,15376,2147431625,2147798848,2147588416,2147831945,2147303277,2147439670,2147769472,2148279981,3528,6,14,55500
1343385967,5805,1005.0000000000000000,223.9714050292968800,537.1276245117188000,6.7130951881408690,37.7295112609863300,51,104,103,82,76,15373,2147431369,2147800649,2147587986,2147835931,2147306240,2147445403,2147766043,2148279771,55,6,14,394
1343389567,5801,1196.0000000000000000,224.3356933593750000,537.6740112304688000,6.6958451271057130,37.7192611694335940,51,104,102,82,75,15371,2147427318,2147798829,2147590326,2147833298,2147308827,2147441097,2147768612,2148277184,3265,6,14,64539
1343393167,5803,11.3999996185302730,224.9423065185547000,538.0501098632812000,6.6839690208435060,37.6922492980957000,51,105,102,83,76,15372,2147430226,2147795346,2147589632,2147834148,2147304786,2147443190,2147767003,2148276608,3330,6,15,64910
1343396767,5804,11.3000001907348630,225.7023010253906200,540.0202026367188000,6.6217460632324220,37.6867790222168000,51,103,103,83,76,15371,2147426770,2147800237,2147586496,2147836132,2147304393,2147445449,2147767744,2148279844,3443,6,14,50371
1343400367,5803,12.0000000000000000,225.1300964355468800,538.0581054687500000,6.6837182044982910,37.6825904846191400,51,106,101,82,75,15366,2147430829,2147797860,2147588278,2147837659,2147304722,2147446537,2147763172,2148279826,3538,6,14,56671
1343403967,5807,12.8000001907348630,224.7642974853515600,539.0488281250000000,6.6524310111999510,37.7205085754394500,51,104,102,83,76,15367,2147431030,2147797293,2147584768,2147834313,2147305270,2147449572,2147766390,2148279030,85,6,14,10227
1343407567,5803,1017.0000000000000000,226.3916931152343800,540.3292236328125000,6.6119837760925290,37.6542091369628900,51,105,104,81,76,15360,2147426331,2147796717,2147585097,2147838509,2147304886,2147448027,2147771200,2148279789,64,6,14,38406
1343411167,5805,1230.0000000000000000,225.8726959228515600,538.9348754882812000,6.6560268402099610,37.6580009460449200,51,105,101,81,76,15359,2147433179,2147799332,2147584219,2147834496,2147302052,2147445412,2147769782,2148278893,672,6,14,21381
1343414767,5803,12.0000000000000000,225.5959014892578000,539.1187133789062000,6.6502251625061035,37.6760711669921900,51,104,102,82,76,15359,2147432704,2147799268,2147586761,2147837586,2147305563,2147443785,2147768795,2148278738,236,6,14,58457
1343418367,5806,1060.0000000000000000,223.7846984863281200,538.3812255859375000,6.6735148429870605,37.7623100280761700,51,105,102,82,76,15352,2147431469,2147798281,2147588982,2147835785,2147307017,2147443922,2147765769,2148276992,228,6,15,45625
1343421967,5806,1070.0000000000000000,223.7890930175781200,537.9990234375000000,6.6855850219726560,37.7544097900390600,51,104,103,82,77,15354,2147427849,2147797430,2147586834,2147833289,2147305033,2147445595,2147766381,2148278674,234,6,14,27132
1343425567,5803,1264.0000000000000000,223.4468994140625000,538.4716796875000000,6.6706562042236330,37.7817382812500000,51,114,102,81,75,15359,2147432685,2147795117,2147587200,2147835794,2147306852,2147447049,2147767003,2148279314,3159,6,14,3851
1343429167,5804,133.0000000000000000,224.2816009521484400,538.0673828125000000,6.6834220886230470,37.7286300659179700,51,108,103,82,76,15355,2147432201,2147796251,2147587565,2147838272,2147307108,2147448320,2147767872,2148279488,109,6,14,37309
1343432767,5806,13.3999996185302730,223.7534027099609400,537.6674804687500000,6.6960511207580570,37.7503814697265600,50,106,103,81,76,15357,2147432329,2147797796,2147584118,2147835675,2147303990,2147444964,2147764708,2148280749,2,6,15,11405
1343436367,5802,1298.0000000000000000,223.6768951416015600,538.1815795898438000,6.6798171997070310,37.7644309997558600,51,105,103,82,76,15357,2147435318,2147796242,2147587593,2147836288,2147303817,2147447917,2147762294,2148279323,3392,6,14,52974
1343439967,5803,12.3000001907348630,224.3722991943359400,538.1309814453125000,6.6814141273498535,37.7253799438476560,51,105,102,82,76,15353,2147430948,2147796699,2147586724,2147831414,2147305938,2147447780,2147764059,2148278564,3424,6,15,55179
1343443567,5804,10.3000001907348630,224.6333007812500000,538.3416748046875000,6.6747608184814450,37.7143211364746100,51,103,103,82,75,15353,2147431277,2147797001,2147586468,2147834953,2147304301,2147444489,2147764690,2148278573,3416,6,14,24548
1343447167,5806,10.5000000000000000,224.0525970458984400,539.7457275390625000,6.6304168701171875,37.7718391418457000,51,105,103,83,75,15352,2147431314,2147800356,2147589302,2147837083,2147306358,2147443940,2147764827,2148282998,3192,6,15,10285
1343450767,5806,13.8999996185302730,223.0303955078125000,539.9879150390625000,6.6227679252624510,37.8327293395996100,51,105,101,82,76,15353,2147432146,2147794697,2147588809,2147834541,2147304502,2147448694,2147765440,2148279360,247,6,14,57322
1343454367,5804,1030.0000000000000000,223.6828002929687500,539.8870239257812000,6.6259560585021970,37.7943000793457000,50,104,102,83,76,15356,2147431424,2147797586,2147585261,2147834313,2147306477,2147443264,2147771794,2148278308,3410,6,14,15599
1343457967,5806,12.6999998092651370,224.8052062988281200,540.2741699218750000,6.6137218475341800,37.7403106689453100,51,104,102,81,77,15343,2147434139,2147798336,2147588068,2147835181,2147308132,2147444004,2147768566,2148280649,20,6,14,6967
1343461567,5807,13.5000000000000000,226.7377014160156200,540.6060791015625000,6.6032371520996090,37.6407814025878900,51,107,102,82,76,15345,2147433417,2147796772,2147586898,2147834477,2147305837,2147449581,2147766189,2148279232,74,6,14,54752
1343465167,5802,1074.0000000000000000,225.8997039794922000,540.7764892578125000,6.5978531837463380,37.6893882751464840,51,104,103,82,76,15343,2147429979,2147797513,2147589229,2147834441,2147305444,2147444379,2147769417,2148283026,3526,6,15,39926
1343468767,5806,13.1999998092651370,226.2519989013672000,540.7584838867188000,6.5984191894531250,37.6702308654785160,50,107,103,82,76,15341,2147432448,2147797604,2147587209,2147835172,2147306596,2147446427,2147767085,2148278701,76,6,14,11292
1343472367,5805,1018.0000000000000000,225.7398986816406200,539.3842773437500000,6.6418337821960450,37.6729583740234400,50,105,102,83,76,15340,2147432082,2147799396,2147586688,2147838363,2147302006,2147448420,2147768164,2148276937,3532,6,15,23473
1343475967,5804,10.1000003814697270,224.3159027099609400,539.4572143554688000,6.6395320892333980,37.7522010803222660,51,107,103,82,75,15339,2147430272,2147798921,2147588251,2147836251,2147305536,2147445321,2147767158,2148277284,3208,6,15,33408
1343479567,5805,12.1999998092651370,225.9380950927734400,541.0748901367188000,6.5884251594543460,37.6924896240234400,50,106,102,82,76,15338,2147434605,2147795958,2147587236,2147837165,2147302555,2147442587,2147763977,2148278162,285,6,15,19301
1343483167,5804,12.6999998092651370,226.9147949218750000,541.2706909179688000,6.5822348594665530,37.6431083679199200,51,104,103,81,77,15340,2147429302,2147799360,2147588013,2147836608,2147307657,2147442998,2147770048,2148279140,607,6,15,31082
1343483456,5805,104.0000000000000000,226.8549041748047000,541.2484130859375000,6.5829391479492190,37.6456794738769500,50,105,102,81,76,15338,2147431826,2147794697,2147585481,2147836361,2147305133,2147444864,2147765348,2148275931,643,6,14,63235
